Вернуться в каталог

METEOSAT 12

MTG I1

АктивенПогодаGEO
NORAD 54743·PAYLOAD·🇪🇺 EU

Запущен Dec 13, 2022 с Guiana Space Centre

Loading…

TLE

СвежийSource: Space-Track

Эпоха: Sep 14, 2026, 22:21 UTC

1 54743U 22170C   26257.93144745 -.00000015  00000-0  00000-0 0  9991
2 54743   0.7812  26.4915 0003830  85.9772 216.2932  1.00271851 13871

Отслеживайте METEOSAT 12 в реальном времени с AllMySat

Download on the App Store